Time,TemperatureF,DewpointF,PressureIn,WindDirection,WindDirectionDegrees,WindSpeedMPH,WindSpeedGustMPH,Humidity,HourlyPrecipIn,Conditions,Clouds,dailyrainin,SolarRadiationWatts/m^2,SoftwareType,DateUTC
2013-02-20 00:00:00,61.7,58.4,30.03,ENE,78,9.0,20.0,89,0.02,RA,SCT,0.00,0.0,WeatherDisplay:10.37,2013-02-20 10:00:00,
2013-02-20 00:10:00,61.6,58.4,30.03,East,83,8.0,16.0,89,0.01,RA,SCT,0.01,0.0,WeatherDisplay:10.37,2013-02-20 10:10:00,
2013-02-20 00:20:00,61.6,58.4,30.03,ESE,108,6.0,16.0,89,0.00,BKN,SCT,0.01,0.0,WeatherDisplay:10.37,2013-02-20 10:20:00,
2013-02-20 00:30:00,61.8,58.5,30.03,ESE,111,7.0,14.0,89,0.01,RA,SCT,0.02,0.0,WeatherDisplay:10.37,2013-02-20 10:30:00,
2013-02-20 00:40:00,61.7,58.4,30.03,ESE,105,6.0,14.0,89,0.02,RA,SCT,0.04,0.0,WeatherDisplay:10.37,2013-02-20 10:40:00,
2013-02-20 00:50:00,61.8,58.5,30.03,East,96,8.0,18.0,89,0.01,RA,SCT,0.05,0.0,WeatherDisplay:10.37,2013-02-20 10:50:00,
2013-02-20 01:00:00,62.0,58.7,30.02,East,95,9.0,18.0,89,0.00,BKN,SCT,0.05,0.0,WeatherDisplay:10.37,2013-02-20 11:00:00,
2013-02-20 01:10:00,62.1,58.8,30.03,East,98,7.0,17.0,89,0.01,RA,SCT,0.06,0.0,WeatherDisplay:10.37,2013-02-20 11:10:00,
2013-02-20 01:20:00,62.1,58.8,30.02,ESE,108,5.0,16.0,89,0.01,RA,SCT,0.07,0.0,WeatherDisplay:10.37,2013-02-20 11:20:00,
2013-02-20 01:30:00,61.9,58.9,30.03,ESE,121,9.0,13.0,90,0.01,RA,SCT,0.08,0.0,WeatherDisplay:10.37,2013-02-20 11:30:00,
2013-02-20 01:40:00,61.8,58.5,30.02,ESE,102,6.0,17.0,89,0.02,RA,SCT,0.10,0.0,WeatherDisplay:10.37,2013-02-20 11:40:00,
2013-02-20 01:50:00,61.4,57.9,30.02,East,84,10.0,16.0,88,0.00,BKN,SCT,0.10,0.0,WeatherDisplay:10.37,2013-02-20 11:50:00,
2013-02-20 02:00:00,61.5,57.9,30.01,ENE,74,7.0,18.0,88,0.00,BKN,SCT,0.10,0.0,WeatherDisplay:10.37,2013-02-20 12:00:00,
2013-02-20 02:10:00,61.6,58.3,30.01,East,80,6.0,16.0,89,0.00,BKN,SCT,0.10,0.0,WeatherDisplay:10.37,2013-02-20 12:10:00,
2013-02-20 02:20:00,61.5,58.2,30.00,East,90,3.0,13.0,89,0.01,RA,SCT,0.11,0.0,WeatherDisplay:10.37,2013-02-20 12:20:00,
2013-02-20 02:30:00,61.3,58.4,30.00,ENE,70,1.0,10.0,90,0.00,BKN,SCT,0.11,0.0,WeatherDisplay:10.37,2013-02-20 12:30:00,
2013-02-20 02:40:00,61.4,58.4,30.00,ENE,75,5.0,16.0,90,0.01,RA,SCT,0.12,0.0,WeatherDisplay:10.37,2013-02-20 12:40:00,
2013-02-20 02:50:00,61.3,58.7,30.00,ENE,76,8.0,12.0,91,0.00,BKN,SCT,0.12,0.0,WeatherDisplay:10.37,2013-02-20 12:50:00,
2013-02-20 03:00:00,61.3,59.0,30.01,East,83,5.0,8.0,92,0.00,BKN,SCT,0.12,0.0,WeatherDisplay:10.37,2013-02-20 13:00:00,
2013-02-20 03:10:00,61.3,58.7,30.01,East,89,3.0,10.0,91,0.02,-RA,SCT,0.14,0.0,WeatherDisplay:10.37,2013-02-20 13:10:00,
2013-02-20 03:20:00,61.5,58.8,30.00,East,92,8.0,12.0,91,0.00,-RA,SCT,0.14,0.0,WeatherDisplay:10.37,2013-02-20 13:20:00,
2013-02-20 03:30:00,61.6,59.3,30.00,ENE,78,5.0,15.0,92,0.01,-RA,SCT,0.15,0.0,WeatherDisplay:10.37,2013-02-20 13:30:00,
2013-02-20 03:40:00,61.8,59.1,30.00,ENE,75,8.0,17.0,91,0.00,-RA,SCT,0.15,0.0,WeatherDisplay:10.37,2013-02-20 13:40:00,
2013-02-20 03:50:00,61.9,58.9,30.00,East,81,6.0,16.0,90,0.00,-RA,SCT,0.15,0.0,WeatherDisplay:10.37,2013-02-20 13:50:00,
2013-02-20 04:00:00,61.8,58.5,30.00,East,94,7.0,12.0,89,0.01,-RA,SCT,0.16,0.0,WeatherDisplay:10.37,2013-02-20 14:00:00,
2013-02-20 04:10:00,61.8,58.5,30.00,East,92,6.0,14.0,89,0.00,BKN,SCT,0.16,0.0,WeatherDisplay:10.37,2013-02-20 14:10:00,
2013-02-20 04:20:00,61.6,58.0,30.00,East,83,2.0,12.0,88,0.00,BKN,SCT,0.16,0.0,WeatherDisplay:10.37,2013-02-20 14:20:00,
2013-02-20 04:30:00,61.5,58.2,30.00,East,79,10.0,15.0,89,0.00,BKN,SCT,0.16,0.0,WeatherDisplay:10.37,2013-02-20 14:30:00,
2013-02-20 04:40:00,61.9,58.3,30.00,ENE,73,6.0,14.0,88,0.00,BKN,SCT,0.16,0.0,WeatherDisplay:10.37,2013-02-20 14:40:00,
2013-02-20 04:50:00,61.7,58.4,30.00,East,83,6.0,12.0,89,0.00,BKN,SCT,0.16,0.0,WeatherDisplay:10.37,2013-02-20 14:50:00,
2013-02-20 05:00:00,61.7,58.7,30.01,ENE,75,7.0,12.0,90,0.00,BKN,SCT,0.16,0.0,WeatherDisplay:10.37,2013-02-20 15:00:00,
2013-02-20 05:10:00,61.6,58.9,30.00,ENE,73,7.0,12.0,91,0.00,BKN,SCT,0.16,0.0,WeatherDisplay:10.37,2013-02-20 15:10:00,
2013-02-20 05:20:00,61.8,58.8,30.01,East,79,5.0,13.0,90,0.01,RA,SCT,0.17,0.0,WeatherDisplay:10.37,2013-02-20 15:20:00,
2013-02-20 05:30:00,61.8,59.5,30.01,ENE,65,9.0,18.0,92,0.00,FEW,SCT,0.17,0.0,WeatherDisplay:10.37,2013-02-20 15:30:00,
2013-02-20 05:40:00,62.0,59.3,30.01,East,95,8.0,17.0,91,0.01,RA,SCT,0.18,0.0,WeatherDisplay:10.37,2013-02-20 15:40:00,
2013-02-20 05:50:00,62.0,59.3,30.00,East,86,9.0,21.0,91,0.00,FEW,SCT,0.18,0.0,WeatherDisplay:10.37,2013-02-20 15:50:00,
2013-02-20 06:00:00,62.2,59.5,30.01,East,82,12.0,15.0,91,0.00,FEW,SCT,0.18,0.0,WeatherDisplay:10.37,2013-02-20 16:00:00,
2013-02-20 06:10:00,62.4,60.0,30.01,ENE,76,7.0,15.0,92,0.01,-RA,SCT,0.19,0.0,WeatherDisplay:10.37,2013-02-20 16:10:00,
2013-02-20 06:20:00,62.5,60.4,30.02,ENE,63,7.0,15.0,93,0.02,-RA,SCT,0.21,0.0,WeatherDisplay:10.37,2013-02-20 16:20:00,
2013-02-20 06:30:00,62.3,60.2,30.03,ENE,71,5.0,17.0,93,0.04,-RA,SCT,0.25,0.0,WeatherDisplay:10.37,2013-02-20 16:30:00,
2013-02-20 06:40:00,62.2,60.2,30.03,ENE,77,5.0,15.0,93,0.01,-RA,SCT,0.26,0.0,WeatherDisplay:10.37,2013-02-20 16:40:00,
2013-02-20 06:50:00,62.2,60.2,30.04,East,93,8.0,18.0,93,0.00,-RA,SCT,0.26,0.0,WeatherDisplay:10.37,2013-02-20 16:50:00,
2013-02-20 07:00:00,62.5,60.4,30.04,East,87,9.0,19.0,93,0.07,-RA,SCT,0.33,3.7,WeatherDisplay:10.37,2013-02-20 17:00:00,
2013-02-20 07:10:00,62.5,60.4,30.05,East,82,8.0,17.0,93,0.02,RA,SCT,0.35,10.4,WeatherDisplay:10.37,2013-02-20 17:10:00,
2013-02-20 07:20:00,62.4,60.4,30.05,East,87,10.0,16.0,93,0.01,RA,SCT,0.36,12.5,WeatherDisplay:10.37,2013-02-20 17:20:00,
2013-02-20 07:30:00,62.5,60.4,30.05,East,86,12.0,20.0,93,0.00,OVC,SCT,0.36,14.1,WeatherDisplay:10.37,2013-02-20 17:30:00,
2013-02-20 07:40:00,62.6,60.2,30.06,East,88,8.0,16.0,92,0.00,OVC,SCT,0.37,34.4,WeatherDisplay:10.37,2013-02-20 17:40:00,
2013-02-20 07:50:00,62.7,60.3,30.06,East,80,9.0,17.0,92,0.01,RA,SCT,0.37,39.6,WeatherDisplay:10.37,2013-02-20 17:50:00,
2013-02-20 08:00:00,62.7,60.3,30.05,ENE,63,10.0,18.0,92,0.00,OVC,SCT,0.37,48.5,WeatherDisplay:10.37,2013-02-20 18:00:00,
2013-02-20 08:10:00,62.9,60.2,30.05,East,81,7.0,20.0,91,0.00,SCT,SCT,0.37,245.6,WeatherDisplay:10.37,2013-02-20 18:10:00,
2013-02-20 08:20:00,63.5,60.5,30.06,ENE,77,8.0,18.0,90,0.00,SCT,SCT,0.37,312.9,WeatherDisplay:10.37,2013-02-20 18:20:00,
2013-02-20 08:30:00,64.3,60.7,30.07,ENE,74,7.0,16.0,88,0.00,SCT,SCT,0.37,254.5,WeatherDisplay:10.37,2013-02-20 18:30:00,
2013-02-20 08:40:00,65.2,60.9,30.07,East,87,10.0,15.0,86,0.00,SCT,SCT,0.37,337.4,WeatherDisplay:10.37,2013-02-20 18:40:00,
2013-02-20 08:50:00,65.9,60.9,30.07,East,79,9.0,18.0,84,0.00,SCT,SCT,0.37,114.7,WeatherDisplay:10.37,2013-02-20 18:50:00,
2013-02-20 09:00:00,65.6,61.3,30.08,East,81,9.0,17.0,86,0.00,SCT,SCT,0.37,455.8,WeatherDisplay:10.37,2013-02-20 19:00:00,
2013-02-20 09:10:00,65.5,61.6,30.08,ENE,73,8.0,15.0,87,0.00,SCT,SCT,0.37,119.4,WeatherDisplay:10.37,2013-02-20 19:10:00,
2013-02-20 09:20:00,66.1,61.8,30.08,East,87,9.0,17.0,86,0.00,SCT,SCT,0.37,105.9,WeatherDisplay:10.37,2013-02-20 19:20:00,
2013-02-20 09:30:00,66.1,62.4,30.08,East,82,6.0,18.0,88,0.00,SCT,SCT,0.37,184.6,WeatherDisplay:10.37,2013-02-20 19:30:00,
2013-02-20 09:40:00,66.2,62.2,30.07,East,82,10.0,20.0,87,0.01,RA,SCT,0.38,404.7,WeatherDisplay:10.37,2013-02-20 19:40:00,
2013-02-20 09:50:00,65.3,61.7,30.08,ENE,78,9.0,20.0,88,0.00,SCT,SCT,0.38,465.7,WeatherDisplay:10.37,2013-02-20 19:50:00,
2013-02-20 10:00:00,65.8,62.2,30.07,East,81,10.0,20.0,88,0.00,SCT,SCT,0.38,141.3,WeatherDisplay:10.37,2013-02-20 20:00:00,
2013-02-20 10:10:00,65.1,61.8,30.07,ENE,74,13.0,26.0,89,0.01,RA,SCT,0.39,462.0,WeatherDisplay:10.37,2013-02-20 20:10:00,
2013-02-20 10:20:00,65.2,62.5,30.06,ENE,68,14.0,22.0,91,0.00,SCT,SCT,0.39,550.2,WeatherDisplay:10.37,2013-02-20 20:20:00,
2013-02-20 10:30:00,65.4,62.1,30.07,East,79,15.0,23.0,89,0.04,RA,SCT,0.43,176.8,WeatherDisplay:10.37,2013-02-20 20:30:00,
2013-02-20 10:40:00,65.2,62.8,30.07,ENE,75,9.0,22.0,92,0.02,RA,SCT,0.45,224.2,WeatherDisplay:10.37,2013-02-20 20:40:00,
2013-02-20 10:50:00,65.1,62.4,30.07,ENE,78,12.0,26.0,91,0.03,RA,SCT,0.48,337.4,WeatherDisplay:10.37,2013-02-20 20:50:00,
2013-02-20 11:00:00,65.4,63.3,30.07,ENE,72,13.0,24.0,93,0.01,RA,SCT,0.49,560.1,WeatherDisplay:10.37,2013-02-20 21:00:00,
2013-02-20 11:10:00,65.3,62.9,30.07,ENE,75,14.0,23.0,92,0.01,RA,SCT,0.50,454.2,WeatherDisplay:10.37,2013-02-20 21:10:00,
2013-02-20 11:20:00,65.4,62.4,30.07,East,82,13.0,24.0,90,0.00,SCT,SCT,0.50,258.7,WeatherDisplay:10.37,2013-02-20 21:20:00,
2013-02-20 11:30:00,65.8,63.7,30.06,ENE,69,12.0,25.0,93,0.02,RA,SCT,0.52,294.1,WeatherDisplay:10.37,2013-02-20 21:30:00,
2013-02-20 11:40:00,65.4,62.4,30.06,East,80,12.0,26.0,90,0.00,SCT,SCT,0.52,276.4,WeatherDisplay:10.37,2013-02-20 21:40:00,
2013-02-20 11:50:00,66.0,62.7,30.06,East,83,18.0,29.0,89,0.00,SCT,SCT,0.52,728.0,WeatherDisplay:10.37,2013-02-20 21:50:00,
2013-02-20 12:00:00,66.1,62.2,30.05,ENE,74,14.0,25.0,87,0.00,SCT,SCT,0.52,337.4,WeatherDisplay:10.37,2013-02-20 22:00:00,
2013-02-20 12:10:00,67.9,63.9,30.05,ENE,77,10.0,29.0,87,0.00,SCT,SCT,0.52,537.1,WeatherDisplay:10.37,2013-02-20 22:10:00,
2013-02-20 12:20:00,69.4,63.3,30.05,ENE,76,14.0,28.0,81,0.00,SCT,SCT,0.52,472.5,WeatherDisplay:10.37,2013-02-20 22:20:00,
2013-02-20 12:30:00,69.2,62.4,30.04,ENE,77,18.0,29.0,79,0.00,SCT,SCT,0.52,340.0,WeatherDisplay:10.37,2013-02-20 22:30:00,
2013-02-20 12:40:00,70.1,62.6,30.04,ENE,75,13.0,24.0,77,0.00,SCT,SCT,0.52,444.3,WeatherDisplay:10.37,2013-02-20 22:40:00,
2013-02-20 12:50:00,70.0,61.7,30.03,ENE,75,17.0,32.0,75,0.00,SCT,SCT,0.52,430.2,WeatherDisplay:10.37,2013-02-20 22:50:00,
2013-02-20 13:00:00,70.5,62.2,30.04,East,82,12.0,24.0,75,0.00,SCT,SCT,0.52,440.7,WeatherDisplay:10.37,2013-02-20 23:00:00,
2013-02-20 13:10:00,70.6,61.1,30.04,ENE,76,13.0,23.0,72,0.00,SCT,SCT,0.52,398.4,WeatherDisplay:10.37,2013-02-20 23:10:00,
2013-02-20 13:20:00,70.9,61.8,30.04,ENE,74,7.0,20.0,73,0.00,SCT,SCT,0.52,420.3,WeatherDisplay:10.37,2013-02-20 23:20:00,
2013-02-20 13:30:00,71.3,61.4,30.03,ENE,66,15.0,22.0,71,0.00,SCT,SCT,0.52,412.5,WeatherDisplay:10.37,2013-02-20 23:30:00,
2013-02-20 13:40:00,71.4,61.5,30.03,ENE,66,9.0,31.0,71,0.00,SCT,SCT,0.52,420.3,WeatherDisplay:10.37,2013-02-20 23:40:00,
2013-02-20 13:50:00,71.9,63.2,30.03,ENE,67,9.0,25.0,74,0.00,SCT,SCT,0.52,446.9,WeatherDisplay:10.37,2013-02-20 23:50:00,
2013-02-20 14:00:00,71.1,62.0,30.02,ENE,77,10.0,23.0,73,0.00,SCT,SCT,0.52,398.4,WeatherDisplay:10.37,2013-02-21 00:00:00,
2013-02-20 14:10:00,71.6,61.7,30.02,ENE,65,7.0,23.0,71,0.00,SCT,SCT,0.52,398.4,WeatherDisplay:10.37,2013-02-21 00:10:00,
2013-02-20 14:20:00,71.9,62.0,30.02,ENE,76,12.0,24.0,71,0.00,SCT,SCT,0.52,390.6,WeatherDisplay:10.37,2013-02-21 00:20:00,
2013-02-20 14:30:00,72.2,61.5,30.02,ENE,72,13.0,24.0,69,0.00,SCT,SCT,0.52,394.8,WeatherDisplay:10.37,2013-02-21 00:30:00,
2013-02-20 14:40:00,72.0,60.4,30.01,ENE,71,12.0,27.0,67,0.00,SCT,SCT,0.52,394.8,WeatherDisplay:10.37,2013-02-21 00:40:00,
2013-02-20 14:50:00,71.1,62.4,30.02,ENE,65,14.0,26.0,74,0.00,SCT,SCT,0.52,383.3,WeatherDisplay:10.37,2013-02-21 00:50:00,
2013-02-20 15:00:00,70.6,62.3,30.02,ENE,69,10.0,22.0,75,0.00,SCT,SCT,0.52,377.0,WeatherDisplay:10.37,2013-02-21 01:00:00,
2013-02-20 15:10:00,70.6,62.3,30.02,East,79,13.0,23.0,75,0.00,SCT,SCT,0.52,378.1,WeatherDisplay:10.37,2013-02-21 01:10:00,
2013-02-20 15:20:00,70.1,61.8,30.01,ENE,64,16.0,23.0,75,0.00,SCT,SCT,0.52,375.5,WeatherDisplay:10.37,2013-02-21 01:20:00,
2013-02-20 15:30:00,70.2,61.9,30.02,ENE,72,12.0,22.0,75,0.00,SCT,SCT,0.52,354.1,WeatherDisplay:10.37,2013-02-21 01:30:00,
2013-02-20 15:40:00,70.1,61.0,30.02,ENE,75,15.0,27.0,73,0.00,SCT,SCT,0.52,356.2,WeatherDisplay:10.37,2013-02-21 01:40:00,
2013-02-20 15:50:00,70.3,60.1,30.02,ENE,72,14.0,22.0,70,0.00,SCT,SCT,0.52,345.2,WeatherDisplay:10.37,2013-02-21 01:50:00,
2013-02-20 16:00:00,70.2,60.3,30.02,ENE,65,13.0,24.0,71,0.00,SCT,SCT,0.52,340.0,WeatherDisplay:10.37,2013-02-21 02:00:00,
2013-02-20 16:10:00,70.1,60.7,30.02,ENE,77,12.0,26.0,72,0.00,SCT,SCT,0.52,331.2,WeatherDisplay:10.37,2013-02-21 02:10:00,
2013-02-20 16:20:00,70.0,61.3,30.02,ENE,66,13.0,22.0,74,0.00,SCT,SCT,0.52,322.3,WeatherDisplay:10.37,2013-02-21 02:20:00,
2013-02-20 16:30:00,69.6,61.3,30.02,ENE,70,13.0,23.0,75,0.00,SCT,SCT,0.52,312.9,WeatherDisplay:10.37,2013-02-21 02:30:00,
2013-02-20 16:40:00,69.0,60.8,30.01,East,80,9.0,23.0,75,0.00,SCT,SCT,0.52,304.0,WeatherDisplay:10.37,2013-02-21 02:40:00,
2013-02-20 16:50:00,68.5,59.9,30.02,ENE,74,13.0,27.0,74,0.00,SCT,SCT,0.52,292.6,WeatherDisplay:10.37,2013-02-21 02:50:00,
2013-02-20 17:00:00,68.8,59.8,30.01,ENE,77,10.0,22.0,73,0.00,SCT,SCT,0.52,285.3,WeatherDisplay:10.37,2013-02-21 03:00:00,
2013-02-20 17:10:00,68.6,59.6,30.02,ENE,68,9.0,20.0,73,0.00,FEW,SCT,0.52,272.2,WeatherDisplay:10.37,2013-02-21 03:10:00,
2013-02-20 17:20:00,67.9,59.7,30.02,ENE,68,15.0,23.0,75,0.00,FEW,SCT,0.52,257.1,WeatherDisplay:10.37,2013-02-21 03:20:00,
2013-02-20 17:30:00,67.4,59.2,30.02,ENE,76,9.0,22.0,75,0.00,FEW,SCT,0.52,240.4,WeatherDisplay:10.37,2013-02-21 03:30:00,
2013-02-20 17:40:00,66.6,58.5,30.02,ENE,72,12.0,22.0,75,0.00,FEW,SCT,0.52,219.0,WeatherDisplay:10.37,2013-02-21 03:40:00,
2013-02-20 17:50:00,66.0,58.2,30.02,ENE,64,12.0,18.0,76,0.00,FEW,SCT,0.52,192.4,WeatherDisplay:10.37,2013-02-21 03:50:00,
2013-02-20 18:00:00,65.5,56.6,30.02,ENE,72,9.0,17.0,73,0.00,FEW,SCT,0.52,155.4,WeatherDisplay:10.37,2013-02-21 04:00:00,
2013-02-20 18:10:00,65.1,56.6,30.02,ENE,64,13.0,26.0,74,0.00,FEW,SCT,0.52,103.3,WeatherDisplay:10.37,2013-02-21 04:10:00,
2013-02-20 18:20:00,64.7,55.8,30.02,ENE,70,9.0,18.0,73,0.00,SCT,SCT,0.52,8.9,WeatherDisplay:10.37,2013-02-21 04:20:00,
2013-02-20 18:30:00,64.2,56.5,30.03,ENE,64,10.0,25.0,76,0.00,SCT,SCT,0.52,0.0,WeatherDisplay:10.37,2013-02-21 04:30:00,
2013-02-20 18:40:00,63.8,56.4,30.03,East,80,10.0,25.0,77,0.00,SCT,SCT,0.52,0.0,WeatherDisplay:10.37,2013-02-21 04:40:00,
2013-02-20 18:50:00,63.7,56.7,30.03,ENE,72,9.0,21.0,78,0.00,SCT,SCT,0.52,0.0,WeatherDisplay:10.37,2013-02-21 04:50:00,
2013-02-20 19:00:00,63.5,56.5,30.03,ENE,71,10.0,22.0,78,0.00,SCT,SCT,0.52,0.0,WeatherDisplay:10.37,2013-02-21 05:00:00,
2013-02-20 19:10:00,63.4,56.0,30.04,ENE,72,12.0,23.0,77,0.00,SCT,SCT,0.52,0.0,WeatherDisplay:10.37,2013-02-21 05:10:00,
2013-02-20 19:20:00,63.1,56.5,30.04,ENE,64,10.0,20.0,79,0.00,SCT,SCT,0.52,0.0,WeatherDisplay:10.37,2013-02-21 05:20:00,
2013-02-20 19:30:00,62.8,57.6,30.04,ENE,61,10.0,18.0,83,0.00,SCT,SCT,0.52,0.0,WeatherDisplay:10.37,2013-02-21 05:30:00,
2013-02-20 19:40:00,62.5,56.9,30.04,ENE,70,8.0,24.0,82,0.00,SCT,SCT,0.52,0.0,WeatherDisplay:10.37,2013-02-21 05:40:00,
2013-02-20 19:50:00,62.6,55.6,30.05,ENE,68,6.0,16.0,78,0.00,SCT,SCT,0.52,0.0,WeatherDisplay:10.37,2013-02-21 05:50:00,
2013-02-20 20:00:00,62.6,56.3,30.05,ENE,67,8.0,17.0,80,0.00,SCT,SCT,0.52,0.0,WeatherDisplay:10.37,2013-02-21 06:00:00,
2013-02-20 20:10:00,62.6,57.0,30.05,ENE,71,10.0,20.0,82,0.00,SCT,SCT,0.52,0.0,WeatherDisplay:10.37,2013-02-21 06:10:00,
2013-02-20 20:20:00,62.4,57.5,30.06,ENE,67,9.0,16.0,84,0.00,SCT,SCT,0.52,0.0,WeatherDisplay:10.37,2013-02-21 06:20:00,
2013-02-20 20:30:00,62.3,58.1,30.06,ENE,71,10.0,15.0,86,0.00,SCT,SCT,0.52,0.0,WeatherDisplay:10.37,2013-02-21 06:30:00,
2013-02-20 20:40:00,62.3,58.1,30.06,ENE,68,9.0,18.0,86,0.00,SCT,SCT,0.52,0.0,WeatherDisplay:10.37,2013-02-21 06:40:00,
2013-02-20 20:50:00,62.3,57.7,30.07,ENE,68,9.0,21.0,85,0.00,SCT,SCT,0.52,0.0,WeatherDisplay:10.37,2013-02-21 06:50:00,
2013-02-20 21:00:00,62.4,57.8,30.07,ENE,68,9.0,17.0,85,0.00,SCT,SCT,0.52,0.0,WeatherDisplay:10.37,2013-02-21 07:00:00,
2013-02-20 21:10:00,62.3,58.7,30.07,ENE,65,9.0,17.0,88,0.00,SCT,SCT,0.52,0.0,WeatherDisplay:10.37,2013-02-21 07:10:00,
2013-02-20 21:20:00,62.2,58.9,30.07,ENE,70,9.0,20.0,89,0.00,FEW,SCT,0.52,0.0,WeatherDisplay:10.37,2013-02-21 07:20:00,
2013-02-20 21:30:00,62.1,59.1,30.07,ENE,64,7.0,16.0,90,0.00,FEW,SCT,0.52,0.0,WeatherDisplay:10.37,2013-02-21 07:30:00,
2013-02-20 21:40:00,62.1,59.1,30.07,ENE,60,8.0,16.0,90,0.00,FEW,SCT,0.52,0.0,WeatherDisplay:10.37,2013-02-21 07:40:00,
2013-02-20 21:50:00,62.2,59.2,30.07,ENE,65,6.0,20.0,90,0.00,FEW,SCT,0.52,0.0,WeatherDisplay:10.37,2013-02-21 07:50:00,
2013-02-20 22:00:00,62.2,59.2,30.07,ENE,67,9.0,17.0,90,0.00,FEW,SCT,0.52,0.0,WeatherDisplay:10.37,2013-02-21 08:00:00,
2013-02-20 22:10:00,62.3,59.6,30.06,ENE,65,9.0,18.0,91,0.00,FEW,SCT,0.52,0.0,WeatherDisplay:10.37,2013-02-21 08:10:00,
2013-02-20 22:20:00,62.3,59.0,30.06,ENE,71,7.0,20.0,89,0.00,FEW,SCT,0.52,0.0,WeatherDisplay:10.37,2013-02-21 08:20:00,
2013-02-20 22:30:00,62.5,58.3,30.06,ENE,74,12.0,20.0,86,0.00,FEW,SCT,0.52,0.0,WeatherDisplay:10.37,2013-02-21 08:30:00,
2013-02-20 22:40:00,62.5,58.3,30.06,ENE,63,5.0,23.0,86,0.00,FEW,SCT,0.52,0.0,WeatherDisplay:10.37,2013-02-21 08:40:00,
2013-02-20 22:50:00,62.1,58.2,30.05,NE,55,6.0,13.0,87,0.00,FEW,SCT,0.52,0.0,WeatherDisplay:10.37,2013-02-21 08:50:00,
2013-02-20 23:00:00,61.9,58.3,30.06,ENE,64,9.0,18.0,88,0.00,FEW,SCT,0.52,0.0,WeatherDisplay:10.37,2013-02-21 09:00:00,
2013-02-20 23:10:00,61.9,58.9,30.06,ENE,78,8.0,15.0,90,0.00,FEW,SCT,0.52,0.0,WeatherDisplay:10.37,2013-02-21 09:10:00,
2013-02-20 23:20:00,61.9,58.9,30.06,East,79,9.0,24.0,90,0.00,FEW,SCT,0.52,0.0,WeatherDisplay:10.37,2013-02-21 09:20:00,
2013-02-20 23:30:00,62.3,58.4,30.06,East,86,6.0,17.0,87,0.00,FEW,SCT,0.52,0.0,WeatherDisplay:10.37,2013-02-21 09:30:00,
2013-02-20 23:40:00,62.5,58.3,30.06,East,85,6.0,15.0,86,0.00,FEW,SCT,0.52,0.0,WeatherDisplay:10.37,2013-02-21 09:40:00,
2013-02-20 23:50:00,62.5,58.3,30.06,East,85,8.0,15.0,86,0.00,FEW,SCT,0.52,0.0,WeatherDisplay:10.37,2013-02-21 09:50:00,